Regional Weather Roundup
Issued by NWS

Home | Current Version | Previous Version | Text Only | Print | Product List | Glossary Off
Versions: 1 2 3 4 5 6 7 8 9 10 11 12 13 14 15 16 17 18 19 20 21 22 23 24 25 26 27

000
ASUS45 KCYS 201810
RWRWY

WYOMING REGIONAL WEATHER ROUNDUP
NATIONAL WEATHER SERVICE CHEYENNE WY
1100 AM MST SAT JAN 20 2018

NOTE:  "FAIR" INDICATES FEW OR NO CLOUDS BELOW 12,000 FEET
WITH NO SIGNIFICANT WEATHER AND/OR OBSTRUCTIONS TO VISIBILITY.

WYZ001-201900-
YELLOWSTONE NATIONAL PARK

CITY           SKY/WX    TMP DP  RH WIND       PRES   REMARKS
LK YELLOWSTONE   N/A     17  12  80 CALM      29.87S
6HR MIN TEMP:   8; 6HR MAX TEMP:  18;

W YELLOWSTONE  NOT AVBL

$$
WYZ002>013-054>058-071-098>099-201900-
NORTHERN WYOMING

CITY           SKY/WX    TMP DP  RH WIND       PRES   REMARKS
JACKSON        FAIR      27  19  72 N9        29.86F WCI  18
CODY           FLURRIES  31  23  72 CALM      29.91R
GREYBULL       CLOUDY    29  24  82 CALM      29.91S
6HR MIN TEMP:  24; 6HR MAX TEMP:  31;

WORLAND        CLOUDY    28  27  96 SW3       29.91R
6HR MIN TEMP:  24; 6HR MAX TEMP:  30;

SHERIDAN       CLOUDY    32  25  75 NW3       29.93S
6HR MIN TEMP:  24; 6HR MAX TEMP:  33;

BUFFALO        CLOUDY    31  19  61 N9        29.90F WCI  23
6HR MIN TEMP:  26; 6HR MAX TEMP:  32; 6HR PCP: TRACE;

GILLETTE       FAIR      30  24  78 N6        29.90F WCI  24
6HR MIN TEMP:  25; 6HR MAX TEMP:  31; 6HR PCP: TRACE;

HULETT         FAIR      32  28  86 CALM      29.91F
NEWCASTLE      MOCLDY    32  30  93 SE5       29.91F WCI  27

$$
WYZ014>020-022>026-101>103-201900-
CENTRAL WYOMING

CITY           SKY/WX    TMP DP  RH WIND       PRES   REMARKS
BIG PINEY      CLOUDY    26  13  57 N9        29.83S WCI  17
6HR MIN TEMP:  20; 6HR MAX TEMP:  26;

PINEDALE       CLOUDY    25  14  63 NW13      29.82F WCI  13
DUBOIS         CLOUDY    27  14  59 S3        29.81S
LANDER         LGT SNOW  27  26  96 NW9       29.85S VSB 3/4 WCI  18
6HR MIN TEMP:  27; 6HR MAX TEMP:  30; 6HR PCP:  0.16;

RIVERTON       LGT SNOW  27  24  89 NE9       29.85F VSB 1   WCI  18
6HR MIN TEMP:  27; 6HR MAX TEMP:  29; 6HR PCP:  0.08;

CASPER         FLURRIES  27  25  92 NE13      29.87F WCI  16
6HR MIN TEMP:  27; 6HR MAX TEMP:  30; 6HR PCP:  0.06;

DOUGLAS        CLOUDY    30  27  88 N7        29.89F WCI  23
6HR MIN TEMP:  30; 6HR MAX TEMP:  32; 6HR PCP: TRACE;


$$
WYZ021-027>030-104>119-201900-
SOUTHERN WYOMING

CITY           SKY/WX    TMP DP  RH WIND       PRES   REMARKS
EVANSTON       FOG       21  19  92 N13       29.81S VSB 1/2 WCI   9
6HR MIN TEMP:  20; 6HR MAX TEMP:  21; 6HR PCP:  0.02;

FORT BRIDGER   LGT SNOW  24  24 100 N8        29.83F VSB 1   WCI  15
ROCK SPRINGS   LGT SNOW  25  22  88 NW6       29.80F WCI  18
6HR MIN TEMP:  23; 6HR MAX TEMP:  25; 6HR PCP: TRACE;

DIXON          LGT SNOW  30  28  92 CALM      29.81F VSB 3/4
RAWLINS        LGT SNOW  28  24  85 NE3       29.79F FOG
6HR MIN TEMP:  25; 6HR MAX TEMP:  28; 6HR PCP: TRACE;

SARATOGA       FLURRIES  30  30 100 N6        29.79F WCI  24
LARAMIE        FAIR      40  27  59 S7        29.75F
6HR MIN TEMP:  22; 6HR MAX TEMP:  40;

CHEYENNE       FOG       29  29 100 N13G18    29.82S VSB 1/4 WCI  19
6HR MIN TEMP:  28; 6HR MAX TEMP:  35;

TORRINGTON     CLOUDY    36  32  85 NE10      29.87F WCI  28
6HR MIN TEMP:  26; 6HR MAX TEMP:  36;


$$




USA.gov is the U.S. government's official web portal to all federal, state and local government web resources and services.